Volver al catálogo

CZ-6A DEB

ActivoPO
NORAD 56238·DEBRIS·🇨🇳 China

Lanzado Nov 11, 2022 desde Taiyuan Satellite Launch Center

Loading…

Próximos Pases (próximas 24 horas)

TLE

ActualizadoSource: Space-Track

Época: Sep 14, 2026, 13:09 UTC

1 56238U 22151ABE 26257.54843395  .00000171  00000-0  20390-3 0  9994
2 56238  98.9051 167.3679 0245311 344.3431  15.0224 13.67458082174117

Sigue CZ-6A DEB en tiempo real con AllMySat

Download on the App Store